This is the latest recevied weather packets stored in our database for station/object KO6LQK. If no packets are shown the sender has not sent any weather packets the latest 10 day(s).
| Time | Temp. | Humidity | Pressure | Rain* | Wind** | Luminosity | Snow |
|---|---|---|---|---|---|---|---|
| 1788402351 | 22.22° C | 29% | 1021.6 hPa | 0 mm | - | 1 W/m² | - |
| 1788402050 | 22.22° C | 29% | 1021.6 hPa | 0 mm | - | 3 W/m² | - |
| 1788401745 | 22.22° C | 29% | 1021.7 hPa | 0 mm | - | 5 W/m² | - |
| 1788401445 | 22.78° C | 29% | 1021.6 hPa | 0 mm | - | 9 W/m² | - |
| 1788401141 | 22.78° C | 29% | 1021.7 hPa | 0 mm | - | 12 W/m² | - |
| 1788400841 | 22.78° C | 28% | 1021.6 hPa | 0 mm | - | 17 W/m² | - |
| 1788400537 | 23.33° C | 29% | 1021.4 hPa | 0 mm | - | 19 W/m² | - |
| 1788400232 | 23.33° C | 28% | 1021.2 hPa | 0 mm | - | 24 W/m² | - |
| 1788399931 | 23.33° C | 29% | 1021.2 hPa | 0 mm | - | 26 W/m² | - |
| 1788399626 | 23.89° C | 29% | 1021.6 hPa | 0 mm | - | 40 W/m² | - |
| 1788399325 | 24.44° C | 30% | 1021.4 hPa | 0 mm | - | 52 W/m² | - |
| 1788399020 | 24.44° C | 30% | 1021.5 hPa | 0 mm | - | 62 W/m² | - |
| 1788398720 | 24.44° C | 30% | 1021.4 hPa | 0 mm | - | 68 W/m² | - |
| 1788398419 | 24.44° C | 29% | 1021.5 hPa | 0 mm | - | 83 W/m² | - |
| 1788398113 | 25° C | 29% | 1021.4 hPa | 0 mm | - | 105 W/m² | - |
| 1788397808 | 25.56° C | 28% | 1021.4 hPa | 0 mm | - | 123 W/m² | - |
| 1788397503 | 25.56° C | 30% | 1021.4 hPa | 0 mm | - | 157 W/m² | - |
| 1788397201 | 25.56° C | 30% | 1021.4 hPa | 0 mm | - | 179 W/m² | - |
| 1788396896 | 25.56° C | 26% | 1021.2 hPa | 0 mm | - | 206 W/m² | - |
| 1788396593 | 26.11° C | 28% | 1021.2 hPa | 0 mm | - | 222 W/m² | - |
| 1788396292 | 26.11° C | 26% | 1021.1 hPa | 0 mm | - | 238 W/m² | - |
| 1788395988 | 26.67° C | 27% | 1021.4 hPa | 0 mm | - | 249 W/m² | - |
| 1788395689 | 26.67° C | 28% | 1020.9 hPa | 0 mm | - | 275 W/m² | - |
| 1788395384 | 26.67° C | 28% | 1021.1 hPa | 0 mm | - | 293 W/m² | - |
| 1788395084 | 26.67° C | 27% | 1021.1 hPa | 0 mm | - | 322 W/m² | - |
* Rain latest hour (hover to see other rain measurements)
** Current wind speed in m/s (hover to see current wind gust speed)